User: anonymous   Login
Location: Holcomb Observatory
(44.4922°N, 73.1654°W)
Time: 04:59:18
(UTC-05:00)
Language:

SL-16 R/B - Orbit

View from above orbital plane
View from above orbital plane
View from above satellite
View from above satellite

Ground track
Ground track

The orbit data is extracted from the following two-line orbital elements,

1 27006U 01056F   17017.90478991 -.00000046  00000-0 -36692-5 0  9993
2 27006  99.2882 163.9089 0014351 344.6986 180.7015 13.70972698755905
Epoch (UTC): 17 January 2017 21:42:53
Eccentricity: 0.0014351
inclination: 99.2882°
perigee height: 985 km
apogee height: 1006 km
right ascension of ascending node: 163.9089°
argument of perigee: 344.6986°
revolutions per day: 13.70972698
mean anomaly at epoch: 180.7015°
orbit number at epoch: 75590

The dashed part of the orbit path shows where the satellite is in the earth's shadow,  

DLR